Date String (YYYY-MM-DD hh:mm:ss) UTC,Instrument flags,absolute air pressure of the measurement (hPa),sample flow rate (lpm),inlet stack bypass flow (lpm),air temperature of the measurement (°C),ambient temperature measured by the external sensor (°C),aerosol sample conditioner tube jacket temperature (°C),OPC LED temperature (°C),internal box temperature (°C),relative humidity of the measurement (%),span deviation,mass concentration of particles derived from Lorenz-Mie calculation of OPC scattering (μg/m³),mass concentration of particles derived from Lorenz-Mie calculation of OPC scattering (μg/m³),mass concentration of particles derived from Lorenz-Mie calculation of OPC scattering (μg/m³)
DateTimeUTC,F1_M11,P_M11,Q1_M11,Q2_M11,T1_M11,T2_M11,T3_M11,T4_M11,T5_M11,U1_M11,ZSPAN_M11,X0_M11,X2_M11,X1_M11
2023-11-28 12:00:00,SystemResetWarning,0831.6,5.00,000.00,018.8,017.9,000.0,027.2,020.0,9.4,0000.0,0004.88,0001.67,0001.20
2023-11-28 12:01:00,SystemResetWarning,0831.6,5.02,000.00,018.8,017.9,000.0,027.2,020.0,9.4,0000.0,0004.61,0001.67,0001.20
2023-11-28 12:02:00,SystemResetWarning,0831.6,4.99,000.00,018.8,017.9,000.0,027.2,020.0,9.4,0000.0,0004.55,0001.68,0001.21
2023-11-28 12:03:00,SystemResetWarning,0831.6,4.99,000.00,018.8,017.9,000.0,027.2,020.0,9.4,0000.0,0004.49,0001.74,0001.23
2023-11-28 12:04:00,SystemResetWarning,0831.6,5.01,000.00,018.8,017.9,000.0,027.2,020.0,9.4,0000.0,0004.61,0001.79,0001.23
2023-11-28 12:05:00,SystemResetWarning,0831.6,5.01,000.00,018.8,017.9,000.0,027.2,020.0,9.4,0000.0,0004.94,0001.83,0001.24
2023-11-28 12:06:00,SystemResetWarning,0831.6,4.99,000.00,018.8,017.9,000.0,027.2,020.0,9.2,0000.0,0004.84,0001.86,0001.26
2023-11-28 12:07:00,SystemResetWarning,0831.6,4.99,000.00,018.8,017.9,000.0,027.2,020.0,9.1,0000.0,0004.79,0001.87,0001.28
2023-11-28 12:08:00,SystemResetWarning,0831.6,5.00,000.00,018.8,017.9,000.0,027.2,020.0,9.1,0000.0,0004.73,0001.84,0001.29
2023-11-28 12:09:00,SystemResetWarning,0831.7,5.00,000.00,018.8,017.9,000.0,027.2,020.0,9.1,0000.0,0004.56,0001.85,0001.31
2023-11-28 12:10:00,SystemResetWarning,0832.2,5.00,000.00,018.8,017.9,000.0,027.2,020.0,9.6,0000.0,0005.87,0001.90,0001.32
2023-11-28 12:11:00,SystemResetWarning,0831.8,5.00,000.00,018.8,017.9,000.0,027.2,020.0,10.0,0000.0,0006.45,0001.95,0001.33
2023-11-28 12:12:00,SystemResetWarning,0831.8,5.01,000.00,018.8,017.9,000.0,027.2,020.0,9.9,0000.0,0007.91,0001.95,0001.33
2023-11-28 12:13:00,SystemResetWarning,0831.8,5.00,000.00,018.8,017.9,000.0,027.2,020.0,9.8,0000.0,0007.79,0001.91,0001.30
2023-11-28 12:14:00,SystemResetWarning,0831.8,4.99,000.00,018.8,017.9,000.0,027.2,020.0,9.9,0000.0,0007.65,0001.87,0001.27
2023-11-28 12:15:00,SystemResetWarning,0832.2,5.00,000.00,018.8,017.9,000.0,027.2,020.0,10.4,0000.0,0008.27,0001.83,0001.26
2023-11-28 12:16:00,SystemResetWarning,0831.9,4.99,000.00,018.8,017.9,000.0,027.2,020.0,10.6,0000.0,0008.13,0001.84,0001.27
2023-11-28 12:17:00,SystemResetWarning,0832.0,5.01,000.00,018.8,017.9,000.0,027.2,020.0,10.5,0000.0,0008.26,0001.85,0001.29
2023-11-28 12:18:00,SystemResetWarning,0831.9,5.01,000.00,018.8,017.9,000.0,027.2,020.0,10.7,0000.0,0008.60,0001.86,0001.31
2023-11-28 12:19:00,SystemResetWarning,0831.9,4.99,000.00,018.8,017.9,000.0,027.2,020.0,11.1,0000.0,0008.68,0001.88,0001.32
2023-11-28 12:20:00,SystemResetWarning,0831.9,5.00,000.00,018.8,017.9,000.0,027.2,020.0,11.2,0000.0,0008.89,0001.90,0001.35
2023-11-28 12:21:00,SystemResetWarning,0832.0,5.00,000.00,018.8,017.9,000.0,027.2,020.0,11.3,0000.0,0008.50,0001.97,0001.43
2023-11-28 12:22:00,SystemResetWarning,0832.0,4.99,000.00,018.8,017.9,000.0,027.2,020.0,11.3,0000.0,0008.24,0002.09,0001.55
2023-11-28 12:23:00,SystemResetWarning,0831.9,4.99,000.00,018.8,017.9,000.0,027.2,020.0,11.3,0000.0,0007.06,0002.18,0001.64
2023-11-28 12:24:00,SystemResetWarning,0831.9,4.99,000.00,018.8,017.9,000.0,027.2,020.0,11.3,0000.0,0007.14,0002.37,0001.81
2023-11-28 12:25:00,SystemResetWarning,0831.9,5.00,000.00,018.8,017.9,000.0,027.2,020.0,11.3,0000.0,0007.31,0002.63,0002.05
2023-11-28 12:26:00,SystemResetWarning,0832.0,5.00,000.00,018.8,017.9,000.0,027.2,020.0,11.3,0000.0,0006.03,0002.88,0002.28
2023-11-28 12:27:00,SystemResetWarning,0831.9,5.00,000.00,018.8,017.9,000.0,027.2,020.0,11.3,0000.0,0005.97,0003.07,0002.50
2023-11-28 12:28:00,SystemResetWarning,0831.9,5.00,000.00,018.8,017.9,000.0,027.2,020.0,11.3,0000.0,0006.02,0003.22,0002.72
2023-11-28 12:29:00,SystemResetWarning,0831.9,5.00,000.00,018.8,017.9,000.0,027.2,020.0,11.2,0000.0,0005.66,0003.34,0002.95
2023-11-28 12:30:00,SystemResetWarning,0832.0,4.99,000.00,018.8,018.0,000.0,027.2,020.0,11.1,0000.0,0005.79,0003.45,0003.13
2023-11-28 12:31:00,SystemResetWarning,0831.9,4.99,000.00,018.8,018.0,000.0,027.2,020.0,11.0,0000.0,0005.56,0003.55,0003.23
2023-11-28 12:32:00,SystemResetWarning,0831.9,5.00,000.00,018.8,018.0,000.0,027.2,020.0,11.0,0000.0,0005.43,0003.62,0003.31
2023-11-28 12:33:00,SystemResetWarning,0831.9,5.01,000.00,018.8,017.9,000.0,027.2,020.0,10.8,0000.0,0005.48,0003.66,0003.36
2023-11-28 12:34:00,SystemResetWarning,0832.0,5.01,000.00,018.8,017.9,000.0,027.2,020.0,10.8,0000.0,0006.45,0003.76,0003.44
2023-11-28 12:35:00,SystemResetWarning,0832.0,5.00,000.00,018.8,017.9,000.0,027.2,020.0,10.7,0000.0,0006.83,0003.78,0003.47
2023-11-28 12:36:00,SystemResetWarning,0832.0,4.99,000.00,018.8,017.9,000.0,027.2,020.0,10.8,0000.0,0006.90,0003.76,0003.45
2023-11-28 12:37:00,SystemResetWarning,0832.0,4.99,000.00,018.8,017.9,000.0,027.2,020.0,10.7,0000.0,0006.80,0003.74,0003.44
2023-11-28 12:38:00,SystemResetWarning,0832.1,4.99,000.00,018.8,017.9,000.0,027.2,020.0,10.5,0000.0,0006.81,0003.71,0003.40
2023-11-28 12:39:00,SystemResetWarning,0832.0,5.00,000.00,018.8,017.9,000.0,027.2,020.0,10.6,0000.0,0006.66,0003.64,0003.35
2023-11-28 12:40:00,SystemResetWarning,0832.0,5.00,000.00,018.8,017.9,000.0,027.2,020.0,10.4,0000.0,0006.96,0003.60,0003.31
2023-11-28 12:41:00,SystemResetWarning,0832.1,5.01,000.00,018.8,017.9,000.0,027.2,020.0,10.1,0000.0,0007.21,0003.54,0003.25
2023-11-28 12:42:00,SystemResetWarning,0832.1,5.00,000.00,018.8,017.9,000.0,027.2,020.0,10.2,0000.0,0007.20,0003.51,0003.21
2023-11-28 12:43:00,SystemResetWarning,0832.1,5.00,000.00,018.8,017.9,000.0,027.2,020.0,10.2,0000.0,0007.09,0003.45,0003.16
2023-11-28 12:44:00,SystemResetWarning,0832.2,4.99,000.00,018.8,017.9,000.0,027.2,020.0,10.2,0000.0,0007.12,0003.40,0003.09
2023-11-28 12:45:00,SystemResetWarning,0832.2,4.99,000.00,018.8,017.9,000.0,027.2,020.0,10.5,0000.0,0006.27,0003.31,0002.99
2023-11-28 12:46:00,SystemResetWarning,0832.2,5.00,000.00,018.8,017.9,000.0,027.2,020.0,10.7,0000.0,0005.65,0003.23,0002.87
2023-11-28 12:47:00,SystemResetWarning,0832.2,5.01,000.00,018.8,017.9,000.0,027.2,020.0,10.5,0000.0,0005.44,0003.16,0002.74
2023-11-28 12:48:00,SystemResetWarning,0832.2,5.00,000.00,018.8,017.9,000.0,027.2,020.0,10.3,0000.0,0005.22,0003.06,0002.61
2023-11-28 12:49:00,SystemResetWarning,0832.2,5.00,000.00,018.8,017.9,000.0,027.2,020.0,10.2,0000.0,0004.94,0002.90,0002.49
2023-11-28 12:50:00,SystemResetWarning,0832.2,5.00,000.00,018.8,017.9,000.0,027.2,020.0,10.3,0000.0,0004.93,0002.85,0002.41
2023-11-28 12:51:00,SystemResetWarning,0832.3,4.99,000.00,018.8,017.9,000.0,027.2,020.0,10.4,0000.0,0004.53,0002.79,0002.37
2023-11-28 12:52:00,SystemResetWarning,0832.3,4.99,000.00,018.8,017.9,000.0,027.2,020.0,10.4,0000.0,0003.94,0002.80,0002.39
2023-11-28 12:53:00,SystemResetWarning,0832.3,5.00,000.00,018.8,017.9,000.0,027.2,020.0,10.3,0000.0,0003.80,0002.77,0002.40
2023-11-28 12:54:00,SystemResetWarning,0832.3,5.00,000.00,018.8,017.9,000.0,027.2,020.0,10.3,0000.0,0003.68,0002.71,0002.34
2023-11-28 12:55:00,SystemResetWarning,0832.4,5.00,000.00,018.8,017.9,000.0,027.2,020.0,10.2,0000.0,0003.51,0002.65,0002.31
2023-11-28 12:56:00,SystemResetWarning,0832.4,5.00,000.00,018.8,017.9,000.0,027.2,020.0,10.4,0000.0,0003.51,0002.66,0002.29
2023-11-28 12:57:00,SystemResetWarning,0832.5,4.99,000.00,018.8,017.9,000.0,027.2,020.0,10.6,0000.0,0003.63,0002.70,0002.32
2023-11-28 12:58:00,SystemResetWarning,0832.5,5.00,000.00,018.8,017.9,000.0,027.2,020.0,10.8,0000.0,0003.61,0002.71,0002.37
2023-11-28 12:59:00,SystemResetWarning,0832.5,5.00,000.00,018.8,017.9,000.0,027.2,020.0,10.6,0000.0,0003.61,0002.72,0002.40
